• In Hungary
  • List of Countries
  • For 7 days
  • Water Temperature
  • Satellite Maps
  • Weather Map
  • News
  • Weather Widgets
  • user-avatar
    Login

    Hourly Weather Zaplavskaya

    Today, 18 August, Saturday

    Time Temperature Precipitation Wind Pressure Humidity
    00:00 +27°C° 0 mm 4 mps 758 mmHg 43%
    01:00 +27°C° 0 mm 4 mps 758 mmHg 48%
    02:00 +26°C° 0 mm 4 mps 758 mmHg 54%
    03:00 +24°C° 0 mm 3 mps 758 mmHg 57%
    04:00 +23°C° 0 mm 4 mps 758 mmHg 61%
    05:00 +23°C° 0 mm 4 mps 758 mmHg 64%
    06:00 +23°C° 0 mm 5 mps 758 mmHg 68%
    07:00 +25°C° 0 mm 5 mps 758 mmHg 62%
    08:00 +27°C° 0 mm 6 mps 758 mmHg 57%
    09:00 +28°C° 0 mm 6 mps 759 mmHg 51%
    10:00 +30°C° 0 mm 6 mps 759 mmHg 45%
    11:00 +32°C° 0 mm 6 mps 758 mmHg 40%
    12:00 +34°C° 0 mm 6 mps 758 mmHg 34%
    13:00 +34°C° 0 mm 6 mps 758 mmHg 33%
    14:00 +34°C° 0 mm 6 mps 758 mmHg 32%
    15:00 +34°C° 0 mm 6 mps 758 mmHg 30%
    16:00 +34°C° 0 mm 6 mps 758 mmHg 31%
    17:00 +33°C° 0 mm 6 mps 758 mmHg 32%
    18:00 +32°C° 0 mm 7 mps 759 mmHg 33%
    19:00 +29°C° 0 mm 6 mps 759 mmHg 34%
    20:00 +28°C° 0 mm 6 mps 759 mmHg 36%
    21:00 +26°C° 0 mm 6 mps 760 mmHg 37%
    22:00 +24°C° 0 mm 6 mps 760 mmHg 38%
    23:00 +23°C° 0 mm 6 mps 760 mmHg 38%

    Tomorrow, 19 August, Sunday

    Time Temperature Precipitation Wind Pressure Humidity
    00:00 +22°C° 0 mm 6 mps 760 mmHg 38%
    01:00 +21°C° 0 mm 5 mps 761 mmHg 40%
    02:00 +21°C° 0 mm 5 mps 761 mmHg 42%
    03:00 +20°C° 0 mm 5 mps 761 mmHg 44%
    04:00 +19°C° 0 mm 5 mps 761 mmHg 46%
    05:00 +19°C° 0 mm 5 mps 761 mmHg 48%
    06:00 +17°C° 0 mm 5 mps 761 mmHg 50%
    07:00 +20°C° 0 mm 5 mps 762 mmHg 45%
    08:00 +22°C° 0 mm 6 mps 762 mmHg 40%
    09:00 +24°C° 0 mm 6 mps 762 mmHg 35%
    10:00 +26°C° 0 mm 6 mps 762 mmHg 32%
    11:00 +27°C° 0 mm 6 mps 762 mmHg 29%
    12:00 +28°C° 0 mm 6 mps 762 mmHg 26%
    13:00 +29°C° 0 mm 6 mps 762 mmHg 24%
    14:00 +29°C° 0 mm 6 mps 761 mmHg 23%
    15:00 +29°C° 0 mm 6 mps 761 mmHg 22%
    16:00 +29°C° 0 mm 6 mps 761 mmHg 22%
    17:00 +28°C° 0 mm 6 mps 761 mmHg 23%
    18:00 +28°C° 0 mm 6 mps 761 mmHg 24%
    19:00 +26°C° 0 mm 5 mps 761 mmHg 27%
    20:00 +23°C° 0 mm 4 mps 762 mmHg 30%
    21:00 +21°C° 0 mm 4 mps 762 mmHg 34%
    22:00 +20°C° 0 mm 4 mps 762 mmHg 36%
    23:00 +20°C° 0 mm 4 mps 762 mmHg 37%

    Day after tomorrow, 20 August, Monday

    Time Temperature Precipitation Wind Pressure Humidity
    00:00 +19°C° 0 mm 3 mps 762 mmHg 39%
    01:00 +19°C° 0 mm 3 mps 762 mmHg 41%
    02:00 +18°C° 0 mm 3 mps 762 mmHg 43%
    03:00 +17°C° 0 mm 3 mps 762 mmHg 45%
    04:00 +17°C° 0 mm 3 mps 762 mmHg 48%
    05:00 +17°C° 0 mm 3 mps 762 mmHg 50%
    06:00 +17°C° 0 mm 3 mps 762 mmHg 52%
    07:00 +19°C° 0 mm 4 mps 762 mmHg 46%
    08:00 +22°C° 0 mm 4 mps 762 mmHg 40%
    09:00 +25°C° 0 mm 5 mps 762 mmHg 34%
    10:00 +26°C° 0 mm 5 mps 762 mmHg 30%
    11:00 +28°C° 0 mm 5 mps 762 mmHg 27%
    12:00 +29°C° 0 mm 5 mps 762 mmHg 23%
    13:00 +30°C° 0 mm 5 mps 761 mmHg 22%
    14:00 +30°C° 0 mm 5 mps 761 mmHg 21%
    15:00 +32°C° 0 mm 5 mps 761 mmHg 20%
    16:00 +32°C° 0 mm 5 mps 760 mmHg 21%
    17:00 +30°C° 0 mm 5 mps 760 mmHg 22%
    18:00 +30°C° 0 mm 5 mps 760 mmHg 23%
    19:00 +27°C° 0 mm 4 mps 760 mmHg 26%
    20:00 +25°C° 0 mm 4 mps 761 mmHg 29%
    21:00 +22°C° 0 mm 3 mps 761 mmHg 33%
    22:00 +21°C° 0 mm 3 mps 761 mmHg 34%
    23:00 +21°C° 0 mm 3 mps 761 mmHg 35%

    21 August, Tuesday

    Time Temperature Precipitation Wind Pressure Humidity
    00:00 +20°C° 0 mm 3 mps 761 mmHg 37%
    01:00 +19°C° 0 mm 3 mps 761 mmHg 37%
    02:00 +19°C° 0 mm 3 mps 761 mmHg 38%
    03:00 +19°C° 0 mm 3 mps 761 mmHg 38%
    04:00 +18°C° 0 mm 3 mps 761 mmHg 39%
    05:00 +18°C° 0 mm 2 mps 761 mmHg 40%
    06:00 +18°C° 0 mm 2 mps 761 mmHg 41%
    07:00 +21°C° 0 mm 3 mps 761 mmHg 37%
    08:00 +24°C° 0 mm 3 mps 761 mmHg 33%
    09:00 +27°C° 0 mm 3 mps 761 mmHg 29%
    10:00 +29°C° 0 mm 3 mps 761 mmHg 26%
    11:00 +30°C° 0 mm 4 mps 761 mmHg 23%
    12:00 +33°C° 0 mm 4 mps 760 mmHg 21%
    13:00 +33°C° 0 mm 4 mps 760 mmHg 20%
    14:00 +34°C° 0 mm 3 mps 760 mmHg 19%
    15:00 +35°C° 0 mm 3 mps 759 mmHg 18%
    16:00 +34°C° 0 mm 3 mps 759 mmHg 19%
    17:00 +34°C° 0 mm 3 mps 759 mmHg 19%
    18:00 +33°C° 0 mm 3 mps 759 mmHg 20%
    19:00 +30°C° 0 mm 3 mps 759 mmHg 23%
    20:00 +28°C° 0 mm 2 mps 760 mmHg 25%
    21:00 +25°C° 0 mm 2 mps 760 mmHg 28%
    22:00 +24°C° 0 mm 2 mps 760 mmHg 30%
    23:00 +24°C° 0 mm 2 mps 760 mmHg 31%

    22 August, Wednesday

    Time Temperature Precipitation Wind Pressure Humidity
    00:00 +23°C° 0 mm 1 mps 760 mmHg 33%
    01:00 +23°C° 0 mm 1 mps 760 mmHg 35%
    02:00 +22°C° 0 mm 1 mps 760 mmHg 36%
    03:00 +22°C° 0 mm 1 mps 760 mmHg 38%
    04:00 +22°C° 0 mm 1 mps 760 mmHg 40%
    05:00 +21°C° 0 mm 1 mps 760 mmHg 43%
    06:00 +21°C° 0 mm 1 mps 760 mmHg 45%
    07:00 +24°C° 0 mm 1 mps 760 mmHg 42%
    08:00 +27°C° 0 mm 2 mps 760 mmHg 38%
    09:00 +29°C° 0 mm 2 mps 760 mmHg 35%
    10:00 +31°C° 0 mm 2 mps 760 mmHg 30%
    11:00 +32°C° 0 mm 1 mps 760 mmHg 26%
    12:00 +34°C° 0 mm 1 mps 759 mmHg 22%
    13:00 +35°C° 0 mm 1 mps 759 mmHg 20%
    14:00 +36°C° 0 mm 2 mps 759 mmHg 19%
    15:00 +36°C° 0 mm 2 mps 758 mmHg 17%
    16:00 +36°C° 0 mm 2 mps 758 mmHg 18%
    17:00 +36°C° 0 mm 2 mps 758 mmHg 18%
    18:00 +35°C° 0 mm 2 mps 758 mmHg 19%
    19:00 +32°C° 0 mm 2 mps 759 mmHg 23%
    20:00 +30°C° 0 mm 2 mps 759 mmHg 26%
    21:00 +28°C° 0 mm 2 mps 759 mmHg 30%
    22:00 +27°C° 0 mm 3 mps 760 mmHg 38%
    23:00 +26°C° 0 mm 3 mps 760 mmHg 46%

    23 August, Thursday

    Time Temperature Precipitation Wind Pressure Humidity
    00:00 +25°C° 0 mm 4 mps 760 mmHg 54%
    01:00 +25°C° 0 mm 4 mps 760 mmHg 59%
    02:00 +23°C° 0 mm 4 mps 760 mmHg 63%
    03:00 +22°C° 0 mm 4 mps 760 mmHg 67%
    04:00 +22°C° 0 mm 4 mps 760 mmHg 67%
    05:00 +22°C° 0 mm 4 mps 760 mmHg 68%
    06:00 +21°C° 0 mm 4 mps 761 mmHg 68%
    07:00 +23°C° 0 mm 5 mps 761 mmHg 60%
    08:00 +26°C° 0 mm 5 mps 761 mmHg 52%
    09:00 +27°C° 0 mm 5 mps 761 mmHg 45%
    10:00 +29°C° 0 mm 5 mps 761 mmHg 40%
    11:00 +32°C° 0 mm 5 mps 760 mmHg 36%
    12:00 +33°C° 0 mm 5 mps 760 mmHg 32%
    13:00 +34°C° 0 mm 5 mps 760 mmHg 31%
    14:00 +34°C° 0 mm 4 mps 760 mmHg 29%
    15:00 +35°C° 0 mm 4 mps 759 mmHg 27%
    16:00 +34°C° 0 mm 4 mps 759 mmHg 28%
    17:00 +34°C° 0 mm 5 mps 759 mmHg 29%
    18:00 +33°C° 0 mm 5 mps 759 mmHg 30%
    19:00 +30°C° 0 mm 5 mps 760 mmHg 32%
    20:00 +29°C° 0 mm 5 mps 760 mmHg 33%
    21:00 +27°C° 0 mm 5 mps 760 mmHg 35%
    22:00 +26°C° 0 mm 5 mps 760 mmHg 34%
    23:00 +25°C° 0 mm 5 mps 760 mmHg 34%
    Show more